PulseSat

PulseSat

GSAT0215 (PRN E21)

Last updated on March 24, 2019, 3:12 a.m. UTC

1 43055U 17079A   19082.45313884 -.00000019  00000-0  00000+0 0  9997
2 43055  56.6286 294.1770 0000261  13.7853 346.2391  1.70473797  7930
UTC
Height (km)
Latitude
Longitude
Inclination
Orbital Period

Next 30 passes for location: Hong Kong

Rise time Rise Azimuth (degrees) Set time Set Azimuth (degrees) Duration Max altitude (degrees)

No matching passes for this satellites

PulseSat

PulseSat is the new satellites software and hardware trackering solution by Pulsely.
Satellite Two Line Element Set source: US Air Force Space Command

Download PulseSat for iOS
© 2017 Pulsely Limited